Friday, December 14, 2018, 1:04 PM EST
Back to Local

KMQE, Milton Blue Hill Observ

Location: Milton, MA, United States Lat: 42.217
Local Time: 1:04 PM EST (18:04 GMT) Lon: -71.117
Time Zone: US/Eastern Elev: 629 ft

Show me the last for .
Show Decoded

2018-12-14 11:56 METAR KMQE 141656Z AUTO 20007KT 170V230 06/M03 A3043 RMK AO1 SLP320 T00611028 =
2018-12-14 10:56 METAR KMQE 141556Z AUTO VRB05KT 04/M04 A3047 RMK AO1 SLP336 T00441044 =
2018-12-14 09:56 METAR KMQE 141456Z AUTO 16006KT 03/M01 A3049 RMK AO1 SLP343 T00331011 50004 =
2018-12-14 08:56 METAR KMQE 141356Z AUTO 18011KT 01/M02 A3051 RMK AO1 SLP349 T00111022 =
2018-12-14 07:56 METAR KMQE 141256Z AUTO 16012KT 00/M03 A3048 RMK AO1 SLP341 T00001028 =
2018-12-14 06:56 METAR KMQE 141156Z AUTO 16012KT M02/M03 A3048 RMK AO1 SLP342 T10171033 11011
                 21022 53000 =
2018-12-14 05:56 METAR KMQE 141056Z AUTO 16011KT M02/M04 A3048 RMK AO1 SLP341 T10171039 =
2018-12-14 04:56 METAR KMQE 140956Z AUTO 14010KT M02/M04 A3047 RMK AO1 SLP337 T10221044 =
2018-12-14 03:56 METAR KMQE 140856Z AUTO 13009KT M02/M04 A3048 RMK AO1 SLP341 T10221044 58014 =
2018-12-14 02:56 METAR KMQE 140756Z AUTO 14006KT M02/M04 A3051 RMK AO1 SLP350 T10171044 =
2018-12-14 01:56 METAR KMQE 140656Z AUTO 15007KT M02/M04 A3053 RMK AO1 SLP356 T10171044 =
2018-12-14 00:56 METAR KMQE 140556Z AUTO 15008KT M02/M06 A3052 RMK AO1 SLP356 T10221056 11011
                 21028 53005 =
2018-12-13 23:56 METAR KMQE 140456Z AUTO 15008KT M02/M06 A3051 RMK AO1 SLP352 T10221061 410061089
                 =
2018-12-13 22:56 METAR KMQE 140356Z AUTO 12007KT M02/M06 A3051 RMK AO1 SLP351 T10171061 =
2018-12-13 21:56 METAR KMQE 140256Z AUTO 13009KT M02/M07 A3051 RMK AO1 SLP351 T10171067 58001 =
2018-12-13 20:56 METAR KMQE 140156Z AUTO 14007KT M02/M07 A3052 RMK AO1 SLP357 T10171067 =
2018-12-13 19:56 METAR KMQE 140056Z AUTO 13007KT M02/M07 A3052 RMK AO1 SLP355 T10221067 =
2018-12-13 18:56 METAR KMQE 132356Z AUTO 13008KT M02/M07 A3051 RMK AO1 SLP354 T10221067 11011
                 21028 51007 =
2018-12-13 17:56 METAR KMQE 132256Z AUTO 13006KT M02/M07 A3051 RMK AO1 SLP353 T10221067 =
2018-12-13 16:56 METAR KMQE 132156Z AUTO 09005KT M02/M07 A3050 RMK AO1 SLPNO T10171067 =
2018-12-13 15:56 METAR KMQE 132056Z AUTO 10004KT M02/M07 A3049 RMK AO1 SLP346 T10171072 53006 =
2018-12-13 14:56 METAR KMQE 131956Z AUTO VRB04KT M01/M07 A3048 RMK AO1 SLP342 T10111072 =
2018-12-13 13:56 METAR KMQE 131856Z AUTO 07005KT M01/M08 A3047 RMK AO1 SLP338 T10111078 =

Support USWX by starting your Amazon purchase here.